This demonstration page uses our WeatherBlox Daily Observations layout. Learn more.

Left ArrowRight Arrow

39.01783, -85.05884

Hourly Observations for March 19, 2015

Temp ( °F °C ) Dew Point ( °F °C ) Humidity (%) Winds ( mph kmh ) Pressure ( in mb ) Visibility ( mi km ) Precip ( " mm )
12:52 am 00:52 Cloudy 42 5.6 19 -7.2 40 40 E 6 9 30.23 1024 10 16 0.00 0.00
1:52 am 01:52 Cloudy 43 6.1 19 -7.2 38 38 NE 6 9 30.23 1024 10 16 0.00 0.00
2:52 am 02:52 Cloudy 42 5.6 18 -7.8 38 38 ENE 8 13 30.22 1023 10 16 0.00 0.00
3:52 am 03:52 Cloudy 42 5.6 18 -7.8 38 38 ENE 8 13 30.21 1023 10 16 0.00 0.00
4:52 am 04:52 Cloudy 41 5 20 -6.7 43 43 E 6 9 30.20 1023 10 16 0.00 0.00
5:52 am 05:52 Cloudy 41 5 20 -6.7 43 43 E 8 13 30.20 1023 10 16 0.00 0.00
6:52 am 06:52 Cloudy 42 5.6 19 -7.2 40 40 ENE 7 11 30.20 1023 10 16 0.00 0.00
7:52 am 07:52 Cloudy 41 5 21 -6.1 45 45 E 10 17 30.21 1023 10 16 0.00 0.00
8:52 am 08:52 Cloudy 42 5.6 20 -6.7 41 41 ENE 12 19 30.23 1024 10 16 0.00 0.00
9:52 am 09:52 Cloudy 42 5.6 21 -6.1 43 43 E 12 19 30.22 1024 10 16 0.00 0.00
10:52 am 10:52 Cloudy 44 6.7 22 -5.6 41 41 E 14 22 30.22 1024 10 16 0.00 0.00
11:52 am 11:52 Cloudy 47 8.3 22 -5.6 37 37 E 18 30 30.21 1023 10 16 0.00 0.00
12:52 pm 12:52 Cloudy 48 8.9 21 -6.1 34 34 E 12 19 30.18 1022 10 16 0.00 0.00
1:52 pm 13:52 Cloudy 51 10.6 21 -6.1 31 31 ENE 12 19 30.16 1021 10 16 0.00 0.00
2:52 pm 14:52 Cloudy 52 11.1 21 -6.1 30 30 ENE 8 13 30.12 1020 10 16 0.00 0.00
3:52 pm 15:52 Cloudy 53 11.7 22 -5.6 30 30 ENE 12 19 30.10 1019 10 16 0.00 0.00
4:52 pm 16:52 Cloudy 52 11.1 21 -6.1 30 30 ENE 13 20 30.09 1019 10 16 0.00 0.00
5:52 pm 17:52 Cloudy with Light Rain 50 10 26 -3.3 39 39 E 9 15 30.09 1019 10 16 0.00 0.03
6:52 pm 18:52 Cloudy with Light Rain 48 8.9 32 0 54 54 E 9 15 30.09 1019 10 16 0.00 0.03
7:52 pm 19:52 Cloudy with Light Rain 46 7.8 34 1.1 63 63 E 9 15 30.09 1019 8 13 0.00 0.03
8:52 pm 20:52 Cloudy with Light Rain 44 6.7 35 1.7 71 71 ENE 8 13 30.09 1019 9 14 0.02 0.51
9:52 pm 21:52 Cloudy with Light Rain 43 6.1 37 2.8 80 80 E 8 13 30.09 1019 7 11 0.03 0.76
10:52 pm 22:52 Cloudy 42 5.6 38 3.3 85 85 E 6 9 30.10 1019 10 16 0.02 0.51
11:26 pm 23:26 Cloudy 43 6 37 3 81 81 E 7 11 30.12 1020 10 16 0.00 0.00
11:52 pm 23:52 Cloudy 42 5.6 38 3.3 85 85 E 7 11 30.07 1018 10 16 0.00 0.00

Powered by AerisWeather